Date String (YYYY-MM-DD hh:mm:ss) UTC,Instrument flags,Ambient pressure (hPa),Sample flow (lpm),Bypass flow (lpm),Sample temperature (°C),Ambient temperature (°C),ASC tube jacket temperature (°C),LED temperature (°C),Box temperature (°C),Sample RH (%),Span deviation,Mass concentration (μg/m³),Mass concentration (μg/m³),Mass concentration (μg/m³)
DateTimeUTC,F1_M11,P_M11,Q1_M11,Q2_M11,T1_M11,T2_M11,T3_M11,T4_M11,T5_M11,U1_M11,ZSPAN_M11,X0_M11,X2_M11,X1_M11
2023-01-06 17:00:00,,0822.4,5.00,0.00,22.7,21.4,00.0,31.5,24.4,09.8,0000.0,0005.71,0001.88,0001.30
2023-01-06 17:01:00,,0822.4,4.99,0.00,22.7,21.3,00.0,31.5,24.4,09.8,0000.0,0005.24,0001.90,0001.29
2023-01-06 17:02:00,,0822.4,5.00,0.00,22.7,21.3,00.0,31.5,24.4,09.8,0000.0,0004.62,0001.89,0001.29
2023-01-06 17:03:00,,0822.3,4.99,0.00,22.7,21.3,00.0,31.5,24.5,09.8,0000.0,0004.63,0001.89,0001.27
2023-01-06 17:04:00,,0822.3,5.01,0.00,22.7,21.3,00.0,31.5,24.5,09.7,0000.0,0004.56,0001.82,0001.26
2023-01-06 17:05:00,,0822.4,5.00,0.00,22.7,21.4,00.0,31.5,24.5,09.7,0000.0,0004.57,0001.81,0001.24
2023-01-06 17:06:00,,0822.4,5.00,0.00,22.7,21.4,00.0,31.5,24.5,09.8,0000.0,0005.00,0001.79,0001.23
2023-01-06 17:07:00,,0822.4,5.00,0.00,22.7,21.3,00.0,31.5,24.4,09.9,0000.0,0004.96,0001.76,0001.22
2023-01-06 17:08:00,,0822.4,4.99,0.00,22.7,21.3,00.0,31.5,24.4,09.9,0000.0,0004.79,0001.75,0001.22
2023-01-06 17:09:00,,0822.4,5.00,0.00,22.7,21.3,00.0,31.5,24.4,09.9,0000.0,0004.29,0001.71,0001.22
2023-01-06 17:10:00,,0822.4,5.00,0.00,22.6,21.3,00.0,31.5,24.4,10.0,0000.0,0003.69,0001.71,0001.20
2023-01-06 17:11:00,,0822.4,5.00,0.00,22.6,21.3,00.0,31.5,24.4,10.1,0000.0,0003.77,0001.70,0001.20
2023-01-06 17:12:00,,0822.4,5.00,0.00,22.6,21.3,00.0,31.5,24.4,10.1,0000.0,0003.88,0001.68,0001.18
2023-01-06 17:13:00,,0822.5,5.01,0.00,22.6,21.3,00.0,31.5,24.4,10.1,0000.0,0005.14,0001.65,0001.17
2023-01-06 17:14:00,,0822.4,5.00,0.00,22.6,21.3,00.0,31.5,24.4,10.3,0000.0,0005.13,0001.66,0001.16
2023-01-06 17:15:00,,0822.4,5.01,0.00,22.6,21.3,00.0,31.5,24.4,10.3,0000.0,0005.37,0001.68,0001.15
2023-01-06 17:16:00,,0822.5,4.99,0.00,22.6,21.3,00.0,31.5,24.4,10.4,0000.0,0005.45,0001.71,0001.16
2023-01-06 17:17:00,,0822.5,5.00,0.00,22.6,21.3,00.0,31.5,24.3,10.4,0000.0,0005.30,0001.75,0001.17
2023-01-06 17:18:00,,0822.5,5.00,0.00,22.6,21.3,00.0,31.5,24.4,10.4,0000.0,0005.16,0001.77,0001.17
2023-01-06 17:19:00,,0822.5,5.01,0.00,22.6,21.3,00.0,31.5,24.4,10.4,0000.0,0005.04,0001.74,0001.17
2023-01-06 17:20:00,,0822.5,4.99,0.00,22.6,21.3,00.0,31.5,24.4,10.3,0000.0,0005.12,0001.73,0001.16
2023-01-06 17:21:00,,0822.5,5.01,0.00,22.6,21.2,00.0,31.4,24.4,10.3,0000.0,0005.33,0001.75,0001.17
2023-01-06 17:22:00,,0822.6,5.03,0.00,22.6,21.2,00.0,31.4,24.3,10.3,0000.0,0005.28,0001.76,0001.17
2023-01-06 17:23:00,,0822.6,5.00,0.00,22.6,21.2,00.0,31.4,24.3,10.3,0000.0,0005.29,0001.81,0001.18
2023-01-06 17:24:00,,0822.6,4.99,0.00,22.6,21.2,00.0,31.4,24.3,10.3,0000.0,0004.41,0001.89,0001.21
2023-01-06 17:25:00,,0822.6,5.00,0.00,22.6,21.2,00.0,31.4,24.3,10.3,0000.0,0004.12,0001.90,0001.24
2023-01-06 17:26:00,,0822.5,4.99,0.00,22.6,21.2,00.0,31.4,24.3,10.3,0000.0,0004.18,0001.89,0001.25
2023-01-06 17:27:00,,0822.6,4.99,0.00,22.6,21.2,00.0,31.4,24.2,10.2,0000.0,0003.99,0001.87,0001.25
2023-01-06 17:28:00,,0822.5,5.00,0.00,22.6,21.2,00.0,31.4,24.3,10.1,0000.0,0003.84,0001.81,0001.24
2023-01-06 17:29:00,,0822.6,5.02,0.00,22.5,21.2,00.0,31.4,24.3,10.2,0000.0,0003.64,0001.78,0001.25
2023-01-06 17:30:00,,0822.6,5.00,0.00,22.6,21.2,00.0,31.4,24.2,10.2,0000.0,0003.75,0001.77,0001.25
2023-01-06 17:31:00,,0822.7,5.01,0.00,22.5,21.2,00.0,31.4,24.3,10.3,0000.0,0003.79,0001.77,0001.25
2023-01-06 17:32:00,,0822.6,4.98,0.00,22.5,21.2,00.0,31.4,24.3,10.3,0000.0,0003.58,0001.76,0001.25
2023-01-06 17:33:00,,0822.6,5.00,0.00,22.5,21.2,00.0,31.4,24.3,10.3,0000.0,0003.52,0001.72,0001.24
2023-01-06 17:34:00,,0822.6,5.01,0.00,22.5,21.2,00.0,31.4,24.3,10.5,0000.0,0003.44,0001.68,0001.24
2023-01-06 17:35:00,,0822.6,5.00,0.00,22.5,21.2,00.0,31.4,24.3,10.5,0000.0,0003.52,0001.66,0001.22
2023-01-06 17:36:00,,0822.6,5.00,0.00,22.5,21.2,00.0,31.4,24.3,10.6,0000.0,0003.57,0001.63,0001.21
2023-01-06 17:37:00,,0822.6,4.99,0.00,22.5,21.2,00.0,31.4,24.4,10.5,0000.0,0003.22,0001.62,0001.19
2023-01-06 17:38:00,,0822.6,4.98,0.00,22.5,21.2,00.0,31.4,24.3,10.5,0000.0,0003.22,0001.62,0001.18
2023-01-06 17:39:00,,0822.6,4.99,0.00,22.5,21.2,00.0,31.4,24.3,10.4,0000.0,0003.24,0001.63,0001.17
2023-01-06 17:40:00,,0822.6,4.99,0.00,22.5,21.2,00.0,31.4,24.4,10.4,0000.0,0003.39,0001.66,0001.16
2023-01-06 17:41:00,,0822.6,4.99,0.00,22.5,21.2,00.0,31.4,24.4,10.4,0000.0,0003.40,0001.68,0001.15
2023-01-06 17:42:00,,0822.6,5.01,0.00,22.5,21.2,00.0,31.4,24.3,10.3,0000.0,0003.27,0001.66,0001.15
2023-01-06 17:43:00,,0822.6,5.01,0.00,22.5,21.2,00.0,31.4,24.3,10.3,0000.0,0003.17,0001.62,0001.13
2023-01-06 17:44:00,,0822.6,5.02,0.00,22.5,21.2,00.0,31.4,24.3,10.4,0000.0,0003.13,0001.63,0001.13
2023-01-06 17:45:00,,0822.6,5.00,0.00,22.5,21.2,00.0,31.4,24.3,10.4,0000.0,0003.39,0001.67,0001.12
2023-01-06 17:46:00,,0822.7,4.99,0.00,22.5,21.2,00.0,31.4,24.4,10.4,0000.0,0003.48,0001.65,0001.12
2023-01-06 17:47:00,,0822.7,5.00,0.00,22.5,21.2,00.0,31.4,24.4,10.6,0000.0,0003.53,0001.66,0001.10
2023-01-06 17:48:00,,0822.6,5.00,0.00,22.5,21.3,00.0,31.4,24.4,10.8,0000.0,0004.39,0001.69,0001.10
2023-01-06 17:49:00,,0822.6,4.99,0.00,22.5,21.3,00.0,31.4,24.3,10.8,0000.0,0004.82,0001.71,0001.10
2023-01-06 17:50:00,,0822.7,4.99,0.00,22.5,21.3,00.0,31.4,24.4,10.7,0000.0,0005.09,0001.73,0001.10
2023-01-06 17:51:00,,0822.7,5.00,0.00,22.5,21.3,00.0,31.4,24.4,10.6,0000.0,0005.11,0001.74,0001.11
2023-01-06 17:52:00,,0822.6,5.01,0.00,22.6,21.3,00.0,31.4,24.4,10.4,0000.0,0004.96,0001.73,0001.10
2023-01-06 17:53:00,,0822.6,5.00,0.00,22.6,21.3,00.0,31.4,24.4,10.3,0000.0,0005.00,0001.75,0001.10
2023-01-06 17:54:00,,0822.6,5.01,0.00,22.6,21.3,00.0,31.4,24.4,10.4,0000.0,0005.28,0001.78,0001.10
2023-01-06 17:55:00,,0822.6,5.02,0.00,22.6,21.3,00.0,31.4,24.4,10.5,0000.0,0005.27,0001.78,0001.11
2023-01-06 17:56:00,,0822.6,4.99,0.00,22.6,21.3,00.0,31.4,24.4,10.7,0000.0,0005.12,0001.75,0001.11
2023-01-06 17:57:00,,0822.6,5.00,0.00,22.6,21.3,00.0,31.4,24.4,10.9,0000.0,0004.92,0001.72,0001.11
2023-01-06 17:58:00,,0822.6,4.99,0.00,22.6,21.3,00.0,31.4,24.4,11.0,0000.0,0004.77,0001.70,0001.12
2023-01-06 17:59:00,,0822.6,4.99,0.00,22.6,21.3,00.0,31.4,24.4,11.0,0000.0,0004.05,0001.65,0001.12
